Location: Hamburg
(53.5554°N, 9.9941°E)
Time: 08:37:45
(UTC+02:00)

OTV 5 (USA 277) - Visible Passes

Search period start: 24 April 2018 00:00
Search period end: 04 May 2018 00:00
Orbit: 308 x 325 km, 54.5° (Epoch: 23 April)

Date Brightness Start Highest point End Pass type
(mag) Time Alt. Az. Time Alt. Az. Time Alt. Az.
24 Apr ? 21:35:51 10° W 21:38:35 79° NNW 21:41:18 10° ENE visible
24 Apr ? 23:10:16 10° WNW 23:12:47 72° NW 23:12:47 72° NW visible
25 Apr ? 21:50:23 10° W 21:53:06 68° N 21:55:49 10° E visible
25 Apr ? 23:24:45 10° WNW 23:26:41 40° W 23:26:41 40° W visible
26 Apr ? 22:04:54 10° W 22:07:38 72° N 22:09:40 16° E visible
26 Apr ? 23:39:17 10° W 23:40:32 22° W 23:40:32 22° W visible
27 Apr ? 22:19:24 10° WNW 22:22:08 88° S 22:23:30 26° ESE visible
27 Apr ? 23:53:57 10° W 23:54:22 13° W 23:54:22 13° W visible
28 Apr ? 22:33:54 10° WNW 22:36:35 56° SSW 22:37:20 38° SE visible
29 Apr ? 22:48:28 10° W 22:50:58 32° SSW 22:51:10 31° SSW visible
30 Apr ? 21:28:33 10° WNW 21:31:16 73° SSW 21:33:59 10° ESE visible
30 Apr ? 23:03:18 10° W 23:05:01 17° SW 23:05:01 17° SW visible
01 May ? 21:43:04 10° W 21:45:41 43° SSW 21:48:02 12° SE visible
02 May ? 21:57:44 10° W 22:00:01 24° SSW 22:01:56 12° SSE visible
03 May ? 22:12:51 10° WSW 22:14:14 13° SW 22:15:36 10° S visible
